TimePST,TemperatureF,Dew PointF,Humidity,Sea Level PressureIn,VisibilityMPH,Wind Direction,Wind SpeedMPH,Gust SpeedMPH,PrecipitationIn,Events,Conditions,WindDirDegrees,DateUTC
12:53 AM,43.0,37.9,82,29.86,10.0,Calm,Calm,-,N/A,,Clear,0,2013-02-09 08:53:00
1:53 AM,42.1,37.0,82,29.87,10.0,Calm,Calm,-,N/A,,Clear,0,2013-02-09 09:53:00
2:53 AM,41.0,36.0,82,29.86,10.0,Calm,Calm,-,N/A,,Clear,0,2013-02-09 10:53:00
3:53 AM,39.9,36.0,86,29.87,10.0,SSW,3.5,-,N/A,,Clear,200,2013-02-09 11:53:00
4:53 AM,39.9,36.0,86,29.88,10.0,WSW,4.6,-,N/A,,Clear,240,2013-02-09 12:53:00
5:53 AM,37.9,35.1,89,29.89,10.0,Variable,4.6,-,N/A,,Clear,0,2013-02-09 13:53:00
6:53 AM,39.9,35.1,83,29.90,10.0,Calm,Calm,-,N/A,,Clear,0,2013-02-09 14:53:00
7:53 AM,43.0,36.0,76,29.93,10.0,SSW,4.6,-,N/A,,Scattered Clouds,200,2013-02-09 15:53:00
8:53 AM,48.0,35.1,61,29.95,10.0,SE,3.5,-,N/A,,Clear,140,2013-02-09 16:53:00
9:53 AM,52.0,33.1,49,29.97,10.0,SE,3.5,-,N/A,,Partly Cloudy,140,2013-02-09 17:53:00
10:53 AM,55.0,28.9,37,29.99,10.0,South,4.6,-,N/A,,Clear,170,2013-02-09 18:53:00
11:53 AM,57.0,28.9,34,29.98,10.0,ESE,5.8,-,N/A,,Clear,120,2013-02-09 19:53:00
12:53 PM,59.0,27.0,29,29.96,10.0,NNE,3.5,-,N/A,,Scattered Clouds,20,2013-02-09 20:53:00
1:53 PM,59.0,27.0,29,29.95,10.0,SE,6.9,-,N/A,,Scattered Clouds,130,2013-02-09 21:53:00
2:53 PM,60.1,28.0,30,29.95,10.0,Calm,Calm,-,N/A,,Scattered Clouds,0,2013-02-09 22:53:00
3:53 PM,59.0,27.0,29,29.95,10.0,Variable,6.9,23.0,N/A,,Clear,0,2013-02-09 23:53:00
4:53 PM,57.0,28.9,34,29.96,10.0,NW,16.1,20.7,N/A,,Clear,320,2013-02-10 00:53:00
5:53 PM,55.0,30.0,38,29.97,10.0,NW,11.5,-,N/A,,Clear,310,2013-02-10 01:53:00
6:53 PM,55.0,30.0,38,29.99,10.0,NW,10.4,-,N/A,,Clear,320,2013-02-10 02:53:00
7:53 PM,53.1,30.0,41,30.00,10.0,NW,6.9,-,N/A,,Clear,310,2013-02-10 03:53:00
8:53 PM,53.1,30.0,41,30.01,10.0,Calm,Calm,-,N/A,,Clear,0,2013-02-10 04:53:00
9:53 PM,46.9,33.1,59,30.02,10.0,SW,5.8,-,N/A,,Clear,220,2013-02-10 05:53:00
10:53 PM,48.9,30.9,50,30.03,10.0,Calm,Calm,-,N/A,,Clear,0,2013-02-10 06:53:00
11:53 PM,48.0,32.0,54,30.04,10.0,Calm,Calm,-,N/A,,Clear,0,2013-02-10 07:53:00